User: anonymous   Login
Location: Unspecified
(0.0000°N, 0.0000°E)
Time: 12:11:48
(UTC+01:00)
Language:

NOAA 12 - Orbit

View from above orbital plane
View from above orbital plane
View from above satellite
View from above satellite

Ground track
Ground track

The orbit data is extracted from the following two-line orbital elements,

1 21263U 91032A   14304.38007675  .00000123  00000-0  70247-4 0  4824
2 21263 098.6530 329.5826 0013686 196.4746 291.2779 14.25694225219967
Epoch (UTC): 31 October 2014 09:07:18
Eccentricity: 0.0013686
inclination: 98.6530°
perigee height: 796 km
apogee height: 816 km
right ascension of ascending node: 329.5826°
argument of perigee: 196.4746°
revolutions per day: 14.25694225
mean anomaly at epoch: 291.2779°
orbit number at epoch: 21996

The dashed part of the orbit path shows where the satellite is in the earth's shadow,  

DLR